Weather in Kharampur

Russia / Yamalo-Nenets Autonomous Okrug     64°16′47″N   78°05′39″E
temp.,
°C
wind,
m/s
gust,
m/s
humid.,
%
clouds,
%
prec.,
mm/h
press.,
hPa
HPBL,
m
27 february, sat
sat2723:00−27wsw349797 0.1 102482
02:00−27wsw339894 0.1 102337
05:00−26sw229894 0.1 102419
08:00−25wsw119895 0.1 102322
11:00−23nnw119190 0.1 1023231
14:00−22n1189100 0.0 1024342
17:00−28n12100100 0.1 102419
20:00−31ne1110083 0.0 102519
28 february, sun
sun2823:00−32ssw0010069 0.0 102519
02:00−32se1110073 0.0 102619
05:00−33sse1110049 0.0 102719
08:00−31se239931 0.0 102719
11:00−26sse339236 0.0 1027207
14:00−24sse239091 0.0 1028283
17:00−28sse239878 0.0 102819
20:00−29sse3310038 0.0 102819
1 march, mon
mon123:00−29s3310020 0.0 102819
02:00−30s231000 0.0 102719
05:00−30sse33990 0.0 102719
08:00−30s33970 0.0 102620
11:00−24s34929 0.0 1026221
14:00−22s459084 0.0 1024286
17:00−26sse349579 0.0 102420
20:00−27s449474 0.0 102323
2 march, tue
tue223:00−27s559687 0.0 102247
02:00−28s569376 0.0 102260
05:00−28s569375 0.0 102266
08:00−29s589220 0.0 1021116
11:00−23s7109033 0.0 1021281
14:00−21s798697 0.0 1020329
17:00−22sse6118899 0.0 1020214
20:00−25sse61189100 0.0 1020143
3 march, wed
wed323:00−26s61189100 0.0 1020168
02:00−27s6109492 0.0 1019135
05:00−28sse699582 0.0 101996
08:00−27sse7129493 0.0 1018226
11:00−22s8129095 0.0 1019346
14:00−19s8129084 0.0 1018438
17:00−21sse7129388 0.0 1017182
20:00−22sse8169095 0.0 1017267